Weather in Zagradovka

Ukraine / Kherson District     47°31′17″N   33°16′37″E
temp.,
°C
wind,
m/s
gust,
m/s
humid.,
%
clouds,
%
prec.,
mm/h
press.,
hPa
HPBL,
m
2 july, sat
sat200:00+20ne49560 0.0 1017169
03:00+18ne46610 0.0 101797
06:00+17ne48705 0.0 1018198
09:00+23ne66425 0.0 1019840
12:00+26ne67250 0.0 10201764
15:00+27nne56200 0.0 10192119
18:00+26nne66210 0.0 10191892
21:00+19ne48390 0.0 1020128
3 july, sun
sun300:00+16ne46520 0.0 102173
03:00+15ne33630 0.0 102141
06:00+15nne34650 0.0 102177
09:00+22nne33430 0.0 1021879
12:00+27nne34285 0.0 10201775
15:00+29n44225 0.0 10182300
18:00+29nne44226 0.0 10172395
21:00+22ene4542100 0.0 101863
4 july, mon
mon400:00+20ne33491 0.0 101836
03:00+18ene33590 0.0 101825
06:00+18ne12620 0.0 101915
09:00+25nne21411 0.0 1019621
12:00+29nne33290 0.0 10182137
15:00+32nne33240 0.0 10162853
18:00+32nne432419 0.0 10153019
21:00+26ene48416 0.0 1016143
5 july, tue
tue500:00+23e23540 0.0 101721
03:00+21ne33600 0.0 101821
06:00+21ne22590 0.0 101837
09:00+28ene34405 0.0 1018696
12:00+32ene34275 0.0 10172768
15:00+34e432227 0.0 10153414
18:00+33ese542289 0.0 10152002
21:00+28se463281 0.0 1015121
6 july, wed
wed600:00+24ssw34470 0.0 101650
03:00+21ssw33510 0.0 101626
06:00+22nnw00480 0.0 101711
09:00+29se32320 0.0 1016752
12:00+33ese23271 0.0 10152918
15:00+34e542375 0.0 10143192
18:00+34ese322296 0.0 10132409
21:00+26sw33363 0.0 101549